Temperature
25 25 24 24 22 20 20 22 22 21 20 20 20 20 19 18 18 18 18 18 18 18 18 18 18 18 18 18 18 18 18 18 18 18 18 18 18 18 18 18 18 18 18 18 18 18 18 17 17
26 25 24 23 20 19 20 21 21 21 21 21 21 20 19 18 18 18 18 18 18 18 18 18 18 18 18 18 18 18 18 18 18 18 18 18 18 18 18 18 18 18 18 18 18 18 18 17 17
26 25 25 21 20 20 21 21 21 22 22 21 21 20 19 18 18 18 18 18 18 18 18 18 18 18 18 18 18 18 18 18 18 18 18 18 18 18 18 18 18 18 18 18 18 18 17 17 17
26 26 24 21 22 22 22 22 22 22 22 21 20 19 19 19 19 19 18 18 18 18 18 18 18 18 18 18 18 18 18 18 18 18 18 18 18 18 18 18 18 18 18 18 17 17 17 17 17
26 25 21 21 22 23 23 23 23 22 21 21 20 19 18 19 19 19 19 18 18 18 18 18 18 18 18 18 18 18 18 18 18 18 18 18 18 18 18 18 18 18 18 18 17 17 17 17 17
27 22 20 21 23 23 23 23 22 21 21 20 20 18 18 19 19 19 19 19 19 19 18 18 18 18 18 18 18 18 18 18 18 18 18 18 18 18 18 18 18 18 18 17 17 17 17 17 17
25 21 22 22 22 23 23 23 22 21 21 21 20 18 18 18 19 19 19 19 19 19 18 18 18 18 18 18 18 18 18 18 18 18 18 18 18 18 18 18 18 18 18 17 17 17 17 17 17
27 21 22 22 23 23 23 23 22 22 21 21 21 19 18 18 19 19 19 19 19 18 18 18 18 18 18 18 18 18 18 18 18 18 18 18 18 18 18 18 18 18 17 17 17 17 17 17 17
27 21 22 23 23 23 23 23 22 22 21 21 21 21 20 19 19 19 18 18 18 18 18 18 18 18 18 18 18 18 18 18 18 18 18 18 18 18 18 18 18 18 17 17 17 17 17 17 17
26 22 23 24 23 23 23 23 22 22 21 20 20 20 20 19 19 19 19 19 19 19 19 19 18 18 18 18 18 18 18 18 18 18 18 18 18 18 18 18 18 18 18 17 17 17 17 17 17
26 24 24 25 25 24 23 23 23 22 20 21 20 20 19 19 19 19 19 19 19 19 19 19 18 18 18 18 18 18 18 18 18 18 18 18 18 18 18 18 18 18 18 17 17 17 17 17 17
25 25 26 25 25 25 24 23 23 22 22 22 22 21 20 19 19 19 19 19 19 19 19 19 18 18 18 18 18 18 18 18 18 18 18 18 18 18 18 18 18 18 18 17 17 17 17 17 17
26 26 26 26 25 25 24 23 23 22 23 22 21 21 20 20 20 20 20 19 19 19 19 19 19 19 18 18 18 18 18 18 18 18 18 18 18 18 18 18 18 18 18 18 18 17 17 17 17
26 25 25 25 25 25 23 23 23 22 22 22 21 20 20 20 20 20 20 20 19 19 19 19 19 19 18 18 18 18 18 18 18 18 18 18 18 18 18 18 18 18 17 17 17 17 17 17 17
26 25 24 25 25 24 24 23 22 22 22 21 21 20 20 20 20 20 20 20 20 19 19 19 19 19 18 18 18 18 18 18 18 18 18 18 18 18 18 18 18 18 18 17 17 17 18 17 17
25 24 24 25 25 24 24 23 22 22 22 21 21 20 20 20 21 21 20 20 20 20 19 19 19 19 19 18 18 18 18 18 18 18 18 18 18 18 18 18 18 18 17 18 18 18 18 17 17
24 24 24 25 25 24 24 23 22 22 22 21 21 21 21 21 21 21 21 20 20 20 20 19 19 19 19 18 18 18 18 18 18 18 18 18 18 18 18 18 18 18 18 17 17 18 18 17 17
24 24 24 24 25 24 23 23 22 22 22 21 21 21 21 21 21 21 21 21 20 20 20 19 19 19 19 18 18 18 18 18 18 18 18 18 18 18 18 18 18 18 18 18 18 17 17 17 17
25 24 24 25 25 24 23 23 21 22 22 21 21 21 21 22 22 21 21 21 20 20 20 20 19 19 19 19 18 18 18 18 18 18 18 18 18 18 18 18 18 18 18 18 18 18 17 17 17
25 25 25 25 25 24 23 23 22 22 22 22 22 21 22 22 22 22 21 21 21 21 20 20 20 19 19 19 19 19 19 19 18 18 18 18 18 18 18 18 18 18 18 18 18 18 18 17 17
25 25 25 25 24 23 24 23 23 22 22 22 22 22 22 22 22 22 22 21 21 21 21 20 20 20 19 19 19 19 19 19 19 18 18 18 18 18 18 18 18 18 18 18 18 18 18 17 17
25 25 25 25 23 22 23 22 22 21 21 21 22 22 22 22 22 22 22 22 22 21 21 20 20 20 20 19 19 19 19 19 19 19 18 18 18 18 18 18 18 18 18 18 18 18 17 17 17
25 24 24 23 22 22 22 22 22 21 21 21 22 23 23 23 23 23 23 22 22 22 21 21 20 20 20 19 19 19 19 19 19 19 19 18 18 18 18 18 18 18 18 18 18 17 17 17 17
24 22 21 19 20 22 22 22 22 20 21 22 22 23 23 23 23 23 23 23 22 22 21 21 21 20 20 20 19 19 19 19 19 19 19 18 18 18 18 18 18 18 18 18 18 17 17 17 17
23 21 21 22 20 21 21 22 21 22 22 22 23 23 24 24 23 23 23 23 23 22 22 21 21 21 20 20 20 19 19 19 19 19 18 18 18 18 18 18 18 18 18 18 17 17 17 17 17
23 22 21 22 21 20 21 21 22 23 23 24 24 24 24 24 24 24 23 23 23 23 22 22 21 21 20 20 20 20 19 19 19 18 18 18 18 18 18 18 18 18 17 17 17 17 17 17 17
22 21 20 19 20 21 21 21 22 23 22 23 23 23 23 24 24 24 24 23 23 23 22 22 22 21 21 20 20 20 19 19 19 18 18 18 18 18 18 18 17 17 17 17 17 17 17 17 17
22 19 18 19 20 21 22 22 22 23 23 22 22 23 23 24 24 24 24 23 23 23 22 22 22 21 21 20 20 20 19 19 19 18 18 18 18 17 17 17 17 17 17 17 17 17 16 16 16
22 20 17 16 18 20 22 22 22 22 22 22 22 23 24 24 24 24 24 23 23 23 22 22 21 21 21 20 20 19 19 19 18 18 18 18 17 17 17 17 17 17 17 16 16 16 16 16 16
23 20 18 20 19 18 20 21 23 21 21 22 22 23 24 24 24 24 24 23 23 22 22 22 21 21 20 20 20 19 19 19 18 18 18 17 17 17 17 17 16 16 16 16 16 16 16 16 16
Wind_Speed
5 5 3 2 6 7 5 4 3 4 4 4 7 8 7 5 3 4 1 5 5 4 6 9 12 13 14 15 16 17 17 17 17 17 18 18 18 19 18 18 18 18 18 18 18 18 18 18 17
5 4 2 4 6 5 4 4 5 5 5 5 7 7 7 6 4 6 3 4 5 5 6 9 12 13 14 14 15 16 16 17 16 16 17 17 17 18 18 18 18 17 18 18 18 18 17 17 16
4 2 4 5 5 4 3 2 6 6 5 4 5 6 5 3 4 4 4 7 6 5 6 9 12 12 13 14 14 15 15 16 16 16 16 16 16 17 17 17 17 16 17 17 17 17 16 15 15
3 4 5 7 6 2 5 5 7 6 6 7 5 6 5 4 3 5 8 8 7 5 6 9 11 12 13 13 13 14 14 14 15 15 15 15 15 16 16 16 15 15 15 15 15 15 14 14 13
4 5 7 6 5 4 4 6 4 6 4 6 6 6 5 5 8 11 9 7 7 5 6 8 11 11 12 12 12 13 13 14 14 14 14 14 14 14 14 14 14 14 14 14 14 13 13 12 12
5 5 6 4 4 4 4 4 6 8 7 6 5 5 4 3 8 8 8 7 5 5 5 7 10 11 11 11 12 12 12 13 13 13 13 13 12 12 12 12 12 12 12 12 12 11 11 11 10
5 5 5 5 4 3 4 3 4 6 6 4 4 5 3 3 5 7 7 6 5 5 5 5 7 8 9 10 11 11 11 11 12 12 11 11 11 11 10 10 10 10 10 10 9 9 9 9 9
5 6 5 3 5 3 5 4 4 6 6 5 4 7 5 5 7 8 7 6 5 4 4 4 6 7 7 7 9 10 10 9 10 10 10 9 9 9 9 8 8 8 8 8 8 7 8 8 7
4 5 3 6 7 5 6 5 3 4 6 3 3 4 7 13 11 9 6 4 3 3 2 3 4 5 5 5 6 7 7 7 7 7 8 8 7 7 6 6 6 6 6 6 6 6 6 6 5
5 4 6 5 7 7 7 6 6 5 5 4 7 8 13 13 11 9 8 6 4 3 2 2 3 3 3 4 5 5 5 6 6 5 6 6 5 4 4 5 4 4 4 4 5 5 4 4 4
4 5 4 3 6 8 8 6 4 8 3 5 10 13 14 12 9 8 7 6 5 4 3 3 2 2 2 2 3 3 4 4 4 4 4 4 3 3 4 4 4 4 4 4 4 5 4 2 2
4 2 5 6 7 7 8 6 5 4 4 7 13 16 15 13 11 10 9 7 5 5 5 3 3 3 2 2 2 2 2 2 1 1 1 2 1 1 2 2 3 3 2 2 2 3 3 2 2
5 3 4 8 10 8 8 6 6 3 6 12 13 13 12 11 9 7 7 7 6 6 6 5 4 4 3 3 2 2 2 2 2 2 2 2 1 0 1 1 1 1 1 1 1 2 2 2 1
4 6 7 8 8 4 7 4 4 4 10 12 12 11 10 10 9 7 7 7 7 7 6 5 5 4 4 3 3 2 3 3 3 3 3 4 3 2 1 1 1 2 1 1 0 1 1 1 0
7 9 8 4 4 4 7 4 1 6 11 11 11 10 10 8 8 9 9 8 8 7 6 5 5 5 4 4 4 3 4 4 3 3 4 5 5 5 3 1 1 2 1 1 1 1 1 0 1
6 7 4 1 3 4 6 3 3 9 11 10 9 9 8 8 8 8 8 7 7 6 6 5 5 5 4 4 3 3 4 4 4 4 4 5 6 5 4 2 2 2 1 0 0 0 1 1 1
6 3 3 2 3 4 4 3 4 9 10 9 8 8 8 7 7 7 7 7 7 7 6 5 4 5 4 3 2 2 3 3 3 4 3 4 5 5 4 3 3 2 1 1 1 0 1 1 1
4 3 3 4 4 5 3 2 4 8 9 9 8 7 8 9 9 7 7 7 7 6 5 5 4 4 3 2 1 0 0 1 1 2 3 4 4 5 4 3 3 2 2 1 1 1 1 1 1
7 6 3 3 3 4 4 3 5 8 9 9 8 8 8 9 7 7 7 7 7 6 5 5 5 4 3 2 1 1 1 1 1 2 3 3 4 4 4 3 2 2 2 2 2 2 2 1 2
7 5 1 1 2 4 3 2 3 8 10 10 10 10 10 8 6 7 8 7 8 8 7 6 5 5 4 3 2 2 2 1 1 1 1 3 4 4 4 4 3 3 2 2 2 2 2 1 2
4 6 6 3 3 5 4 4 2 4 5 6 8 9 9 11 11 9 9 9 8 9 8 8 6 6 5 4 2 1 2 1 1 1 1 2 3 3 3 3 3 3 3 3 3 3 3 2 2
3 5 7 6 5 1 3 2 6 4 5 8 10 10 11 11 10 9 10 10 10 10 8 7 6 5 5 5 4 4 3 2 2 2 2 2 2 2 2 2 2 2 2 3 3 3 3 3 3
5 4 6 5 6 3 2 2 8 1 6 11 12 12 12 11 12 12 12 11 10 9 8 7 6 5 5 5 5 5 3 3 1 1 1 2 2 2 2 2 2 2 2 3 3 3 3 3 3
8 9 9 7 5 1 2 3 7 5 8 8 10 12 12 11 12 11 10 9 8 8 7 7 6 5 5 5 5 5 5 4 2 2 2 2 2 2 2 2 2 2 2 2 2 2 3 3 2
7 7 4 4 3 5 3 3 9 8 8 9 9 11 12 11 11 11 11 11 10 10 9 8 7 6 5 6 5 5 5 4 4 3 3 2 2 2 2 2 1 1 1 2 1 1 2 2 2
5 9 9 6 6 4 2 5 8 6 6 7 7 7 8 9 10 11 12 12 11 11 9 9 8 7 6 6 5 4 4 3 3 3 2 2 2 2 1 1 1 1 1 0 1 1 1 1 2
8 4 7 8 4 1 5 7 8 3 2 2 3 5 7 9 10 11 10 10 10 10 10 9 8 7 6 6 5 4 3 3 3 2 2 1 1 0 1 1 1 1 1 1 1 1 0 1 1
6 10 7 7 6 2 4 5 5 5 4 3 4 6 6 7 8 9 9 9 9 8 7 7 7 6 5 5 4 4 3 3 2 2 2 1 1 1 2 2 1 1 1 2 2 1 1 1 1
5 6 7 6 6 7 3 7 7 9 8 8 7 6 6 7 8 8 8 8 8 7 7 7 6 5 4 4 4 3 3 3 2 2 2 2 1 2 2 2 2 2 2 1 2 1 1 1 1
5 8 8 7 4 5 5 8 6 7 7 7 6 4 5 6 6 6 7 7 8 8 7 7 7 5 4 5 4 3 3 3 3 2 2 2 2 2 2 2 3 2 2 2 2 1 1 1 0
Wind_Direction
152 140 133 89 57 53 43 22 66 64 52 44 71 76 79 60 79 123 123 115 101 89 91 97 96 94 94 95 95 94 95 96 96 97 97 95 97 100 99 100 98 99 100 100 101 101 102 102 103
143 142 85 62 75 67 19 16 75 78 127 119 77 71 68 60 62 103 113 119 102 102 99 103 101 98 97 97 97 97 97 98 98 98 98 97 97 99 100 100 99 100 101 101 102 102 101 101 103
152 122 78 66 79 119 129 92 107 107 107 73 71 62 68 85 104 125 143 128 106 103 104 111 106 103 101 98 97 98 99 100 100 98 98 99 98 99 99 100 101 101 102 102 102 102 101 100 101
122 57 55 66 67 95 143 145 130 114 67 51 75 64 56 68 112 124 128 120 110 102 108 113 108 105 104 103 101 101 101 102 102 101 100 100 99 98 99 100 101 101 101 101 101 102 101 99 100
67 72 60 55 50 65 108 137 111 91 69 61 72 79 47 27 94 113 119 117 115 104 102 111 112 109 108 106 105 104 104 103 102 102 101 102 100 98 99 101 101 101 101 102 101 101 100 99 100
59 68 75 76 71 76 94 97 92 89 89 85 77 83 54 88 106 118 116 111 109 105 101 112 116 114 110 107 105 104 104 103 103 102 102 101 100 99 98 100 101 101 100 101 102 102 101 98 99
94 85 102 116 107 109 134 99 100 109 103 101 100 91 94 126 120 117 108 103 95 94 94 91 103 110 111 109 108 107 106 104 104 103 101 100 100 100 98 98 99 99 97 97 99 101 99 97 98
117 95 89 115 136 146 136 102 106 111 104 119 110 128 157 167 127 108 98 94 91 84 82 81 84 92 96 104 110 110 107 106 105 104 102 98 95 93 94 93 96 96 93 92 95 96 96 93 94
92 80 138 174 163 152 136 120 123 84 107 102 93 129 143 136 127 118 113 103 111 118 83 88 90 92 96 102 105 104 103 98 96 95 94 86 77 76 80 88 94 94 89 86 88 90 88 87 89
86 120 191 186 162 142 136 132 136 106 101 77 79 92 122 135 142 147 154 159 169 170 161 128 114 105 100 102 93 83 77 74 75 75 77 81 78 72 70 63 70 72 70 68 68 63 71 74 73
108 151 161 120 123 121 127 129 113 124 148 169 146 139 143 148 155 164 171 174 184 177 179 171 148 134 122 94 97 84 74 70 70 72 79 79 72 60 50 36 27 31 38 38 33 35 39 54 76
100 106 132 126 120 124 135 127 112 147 192 156 147 147 152 161 170 178 180 181 176 174 194 191 169 159 164 140 117 111 102 92 90 86 97 100 77 49 32 31 21 23 29 33 32 31 20 37 69
77 81 87 113 114 115 110 113 121 129 120 127 135 146 160 170 179 185 181 177 176 184 195 193 176 176 172 160 176 170 181 187 186 177 166 164 155 85 34 10 349 327 342 22 35 33 19 23 31
94 82 83 100 104 103 110 100 95 137 132 136 147 160 172 177 176 173 173 178 182 187 191 182 178 185 176 173 183 194 201 205 206 206 204 198 192 180 184 259 291 290 287 292 23 45 7 357 27
92 82 64 68 90 118 107 66 153 150 144 151 163 172 176 180 176 180 183 183 184 184 180 178 183 183 180 188 196 194 202 200 206 217 219 210 202 193 192 220 275 274 264 280 24 32 32 7 63
65 73 92 215 116 130 121 187 196 153 154 166 173 177 180 186 187 189 181 177 175 170 171 181 183 173 181 182 192 191 197 196 209 215 215 212 205 197 192 204 245 250 236 206 62 21 43 33 58
44 107 149 187 175 141 140 205 188 162 165 178 184 183 183 186 194 192 180 175 172 173 172 176 176 171 181 178 182 192 193 196 212 217 214 212 203 199 197 210 228 212 169 203 229 151 126 91 74
174 157 172 200 199 140 161 228 183 173 178 188 189 189 188 192 202 191 178 172 168 170 171 174 171 171 163 139 113 92 105 213 219 231 233 223 213 210 202 211 222 190 168 195 188 165 129 134 124
151 147 180 220 182 139 180 204 193 181 190 194 195 197 203 205 198 182 174 170 164 172 177 181 181 179 157 142 152 164 221 240 240 237 242 234 225 215 202 208 214 197 194 204 184 161 153 155 133
130 128 163 29 90 130 155 245 204 192 205 202 199 201 205 203 191 184 178 177 178 185 189 190 193 189 184 176 169 176 181 205 211 249 267 246 233 222 212 204 210 205 200 207 188 166 164 183 163
145 167 180 158 78 55 88 347 249 218 209 214 210 204 204 203 197 190 185 186 187 192 194 196 197 195 193 175 138 105 77 38 30 324 290 274 250 234 223 215 210 203 197 214 217 192 185 199 203
197 205 155 135 112 28 98 257 279 232 220 221 219 210 208 205 199 192 188 189 192 197 193 194 193 190 190 173 167 168 175 200 224 227 247 283 275 262 243 228 219 215 205 216 228 210 205 190 206
172 103 108 107 111 71 42 145 285 259 236 235 224 216 212 202 198 196 195 195 193 189 186 189 185 189 189 183 182 181 192 202 207 213 241 276 287 276 263 235 213 218 220 224 226 214 202 201 205
121 78 60 52 72 63 240 164 276 235 223 235 222 213 210 200 198 196 195 188 186 184 183 179 183 197 191 186 188 189 193 195 203 222 236 260 276 283 268 235 213 223 225 229 227 216 203 205 202
99 96 55 20 21 249 265 196 249 251 233 226 220 210 209 198 195 191 186 187 187 186 185 181 187 199 195 187 193 200 196 195 209 221 225 241 268 280 270 248 228 229 229 225 208 193 200 194 188
155 136 154 178 201 264 314 235 255 266 259 235 219 204 197 194 195 193 190 188 190 187 184 184 190 197 195 192 195 196 193 195 211 216 217 225 239 251 251 219 225 248 235 207 140 154 192 172 188
131 145 152 129 138 122 276 283 300 293 316 243 197 182 192 194 192 189 184 184 185 184 187 188 187 191 193 191 184 185 190 196 209 216 209 226 239 227 88 95 92 57 64 73 84 75 47 111 178
131 141 106 116 138 202 285 276 249 258 246 237 216 204 201 191 186 181 179 181 181 179 175 171 175 180 185 172 176 185 185 191 195 173 167 142 104 68 75 70 76 72 73 82 85 71 42 68 5
109 97 105 110 141 150 210 266 230 223 220 218 223 213 194 186 185 182 178 174 170 164 164 167 169 169 169 167 166 165 163 154 138 139 140 138 109 90 84 79 74 67 68 74 88 80 68 76 37
149 155 145 147 179 162 165 260 272 236 227 215 219 206 182 178 175 169 162 157 159 163 165 167 170 168 173 162 156 157 140 128 130 131 125 115 106 92 94 88 78 65 57 58 81 72 54 84 66
Height
1489 1489 1490 1492 1498 1512 1519 1514 1510 1511 1513 1514 1513 1514 1517 1520 1524 1530 1527 1526 1527 1528 1528 1529 1529 1529 1529 1530 1530 1530 1531 1531 1532 1532 1533 1533 1534 1535 1535 1537 1538 1539 1539 1540 1542 1543 1544 1545 1547
1489 1490 1493 1495 1509 1528 1525 1515 1513 1513 1515 1515 1515 1517 1519 1522 1523 1525 1526 1528 1529 1530 1531 1531 1532 1532 1533 1533 1533 1534 1534 1535 1536 1536 1537 1537 1538 1538 1539 1540 1541 1542 1543 1544 1545 1546 1547 1549 1550
1491 1492 1495 1501 1516 1527 1524 1516 1514 1515 1516 1516 1518 1520 1522 1525 1525 1526 1528 1529 1531 1532 1533 1534 1535 1535 1536 1536 1537 1537 1538 1538 1539 1540 1540 1541 1542 1542 1543 1544 1545 1545 1546 1547 1548 1549 1551 1552 1553
1492 1495 1498 1509 1519 1517 1516 1516 1515 1516 1517 1518 1520 1523 1526 1528 1528 1528 1529 1531 1533 1534 1536 1537 1538 1539 1539 1540 1540 1540 1541 1542 1542 1543 1544 1545 1545 1546 1546 1547 1548 1549 1550 1551 1552 1553 1554 1555 1556
1494 1496 1508 1520 1519 1515 1515 1516 1516 1517 1519 1521 1522 1526 1529 1531 1531 1531 1532 1534 1536 1537 1538 1540 1540 1541 1542 1543 1543 1544 1544 1545 1546 1546 1547 1548 1549 1549 1550 1550 1551 1552 1553 1554 1555 1556 1557 1558 1559
1496 1500 1521 1528 1522 1517 1517 1518 1518 1520 1522 1524 1525 1528 1532 1534 1534 1534 1536 1537 1539 1540 1541 1542 1543 1544 1545 1545 1546 1547 1547 1548 1549 1549 1550 1551 1552 1552 1553 1554 1554 1555 1556 1557 1558 1559 1560 1561 1561
1498 1508 1521 1523 1523 1521 1520 1520 1521 1521 1524 1526 1527 1530 1534 1535 1537 1537 1539 1540 1541 1542 1543 1544 1545 1546 1547 1548 1549 1549 1550 1551 1552 1552 1553 1553 1554 1555 1556 1557 1557 1558 1559 1560 1561 1561 1562 1563 1564
1499 1508 1519 1522 1524 1522 1520 1521 1523 1524 1526 1528 1529 1530 1534 1537 1538 1539 1541 1542 1544 1545 1546 1547 1548 1549 1550 1550 1551 1552 1553 1554 1554 1555 1556 1556 1557 1557 1558 1559 1560 1561 1561 1562 1563 1564 1565 1565 1566
1500 1513 1524 1521 1521 1520 1520 1522 1525 1526 1527 1529 1530 1531 1534 1537 1539 1541 1542 1544 1545 1547 1548 1549 1550 1551 1552 1553 1554 1554 1555 1556 1557 1558 1558 1559 1559 1560 1560 1561 1562 1563 1564 1564 1565 1566 1567 1567 1568
1501 1517 1516 1512 1513 1516 1519 1522 1525 1527 1529 1530 1531 1534 1536 1538 1540 1542 1543 1545 1546 1548 1550 1551 1552 1553 1554 1555 1556 1557 1557 1558 1559 1560 1560 1561 1562 1562 1563 1563 1564 1565 1566 1566 1567 1568 1568 1569 1569
1502 1510 1509 1510 1512 1515 1519 1523 1525 1527 1530 1530 1531 1534 1537 1539 1541 1543 1545 1547 1548 1550 1551 1553 1554 1555 1556 1557 1558 1559 1560 1560 1561 1562 1563 1563 1564 1565 1565 1566 1566 1567 1567 1568 1569 1569 1570 1570 1570
1504 1506 1507 1510 1513 1517 1520 1523 1526 1528 1529 1530 1532 1534 1537 1540 1542 1544 1545 1547 1549 1551 1552 1554 1555 1557 1558 1559 1560 1561 1562 1562 1563 1564 1565 1565 1566 1567 1567 1568 1568 1568 1569 1569 1570 1570 1571 1571 1571
1505 1508 1510 1512 1515 1518 1521 1524 1526 1529 1529 1531 1534 1537 1539 1541 1543 1545 1547 1549 1550 1552 1553 1555 1557 1558 1559 1561 1562 1563 1563 1564 1565 1566 1566 1567 1568 1568 1569 1569 1569 1569 1570 1570 1570 1571 1571 1571 1572
1508 1510 1513 1516 1518 1521 1524 1526 1528 1530 1531 1533 1535 1538 1540 1542 1544 1546 1548 1549 1551 1552 1554 1556 1558 1559 1561 1562 1563 1564 1565 1565 1566 1567 1568 1568 1569 1569 1570 1570 1570 1570 1571 1571 1571 1571 1571 1572 1572
1509 1514 1518 1520 1521 1523 1526 1531 1530 1530 1533 1534 1537 1539 1541 1543 1545 1546 1548 1550 1551 1553 1555 1557 1558 1560 1561 1562 1564 1564 1565 1566 1567 1568 1568 1569 1570 1570 1570 1570 1571 1571 1571 1571 1571 1571 1571 1572 1572
1513 1522 1530 1524 1522 1524 1529 1537 1530 1531 1533 1535 1537 1539 1541 1543 1545 1547 1549 1551 1552 1554 1556 1557 1559 1560 1561 1563 1564 1565 1566 1567 1567 1568 1569 1570 1570 1570 1570 1570 1570 1571 1571 1571 1571 1571 1571 1571 1571
1524 1533 1532 1527 1522 1524 1529 1533 1530 1531 1534 1536 1538 1540 1541 1543 1545 1547 1549 1551 1553 1554 1556 1558 1559 1560 1562 1563 1564 1565 1566 1566 1567 1568 1569 1570 1570 1570 1570 1570 1570 1570 1570 1570 1571 1570 1571 1571 1571
1532 1532 1531 1530 1523 1525 1530 1531 1529 1531 1534 1535 1537 1539 1541 1542 1544 1546 1549 1551 1553 1555 1556 1557 1559 1560 1561 1562 1563 1564 1565 1566 1567 1568 1568 1569 1569 1569 1570 1569 1569 1569 1569 1569 1570 1569 1570 1570 1570
1520 1526 1530 1527 1521 1525 1530 1531 1530 1531 1533 1535 1536 1538 1539 1541 1543 1546 1548 1550 1552 1554 1556 1557 1558 1559 1561 1562 1563 1564 1565 1566 1566 1567 1567 1568 1568 1569 1569 1569 1569 1569 1568 1568 1568 1568 1568 1568 1568
1519 1526 1528 1525 1522 1525 1531 1531 1529 1530 1530 1532 1534 1536 1537 1539 1542 1544 1546 1549 1551 1553 1554 1556 1558 1559 1560 1561 1562 1563 1564 1565 1565 1566 1566 1567 1567 1567 1567 1567 1567 1567 1567 1567 1567 1566 1566 1566 1567
1520 1524 1526 1527 1526 1527 1531 1536 1532 1529 1530 1532 1532 1533 1535 1537 1539 1541 1544 1547 1549 1551 1553 1554 1556 1558 1559 1560 1561 1562 1563 1564 1564 1565 1565 1565 1566 1566 1566 1566 1566 1566 1565 1565 1565 1565 1564 1564 1565
1523 1516 1519 1524 1534 1543 1538 1553 1536 1530 1530 1529 1529 1530 1531 1534 1536 1539 1541 1544 1546 1549 1551 1553 1555 1557 1558 1559 1560 1560 1561 1562 1563 1563 1564 1564 1564 1564 1564 1564 1563 1563 1563 1563 1563 1563 1563 1563 1562
1515 1514 1519 1526 1536 1546 1544 1552 1543 1531 1531 1526 1524 1525 1527 1530 1533 1535 1538 1541 1544 1547 1549 1551 1553 1555 1556 1557 1558 1559 1559 1560 1561 1562 1562 1562 1562 1562 1562 1561 1561 1561 1561 1561 1561 1561 1561 1561 1561
1511 1520 1528 1537 1545 1558 1548 1552 1547 1534 1526 1520 1518 1520 1522 1526 1529 1532 1536 1539 1542 1545 1547 1549 1551 1553 1554 1555 1556 1557 1558 1558 1559 1559 1560 1559 1559 1560 1560 1559 1559 1559 1559 1559 1559 1558 1558 1558 1558
1513 1533 1555 1559 1568 1564 1549 1548 1543 1520 1515 1514 1514 1516 1518 1522 1525 1528 1532 1535 1539 1542 1544 1547 1549 1550 1552 1553 1554 1555 1556 1557 1557 1558 1558 1557 1557 1557 1557 1557 1557 1557 1557 1557 1557 1556 1556 1556 1556
1516 1526 1553 1565 1569 1563 1550 1549 1530 1513 1511 1510 1511 1513 1516 1519 1522 1525 1528 1532 1535 1538 1541 1544 1546 1548 1550 1551 1552 1553 1554 1555 1555 1556 1556 1556 1555 1555 1555 1555 1555 1555 1555 1555 1555 1554 1554 1554 1554
1518 1526 1528 1549 1556 1561 1555 1542 1524 1511 1510 1509 1510 1512 1513 1516 1519 1522 1526 1530 1533 1536 1539 1542 1544 1546 1547 1549 1550 1551 1552 1553 1554 1554 1554 1554 1554 1554 1553 1553 1553 1553 1553 1553 1553 1552 1552 1552 1552
1507 1520 1536 1549 1564 1565 1552 1545 1535 1517 1513 1510 1510 1510 1512 1514 1517 1520 1524 1527 1530 1534 1537 1540 1542 1544 1545 1547 1548 1549 1550 1551 1552 1552 1552 1552 1552 1552 1552 1551 1551 1551 1551 1550 1550 1550 1550 1550 1550
1513 1522 1533 1546 1548 1563 1562 1548 1515 1511 1508 1508 1507 1508 1510 1513 1515 1518 1522 1525 1529 1532 1535 1537 1540 1542 1544 1545 1546 1548 1548 1549 1550 1550 1551 1551 1551 1550 1550 1550 1550 1549 1549 1549 1549 1548 1548 1548 1548
1502 1513 1525 1538 1549 1552 1554 1543 1505 1505 1504 1505 1506 1507 1509 1511 1514 1517 1520 1523 1527 1530 1533 1535 1537 1539 1541 1543 1544 1546 1547 1548 1548 1549 1549 1549 1549 1549 1549 1549 1548 1548 1548 1548 1548 1547 1547 1546 1546